User: anonymous   Login
Location: Unspecified
(0.0000°N, 0.0000°E)
Time: 00:56:24
(UTC+00:00)
Language:

Explorer 7 - Orbit

View from above orbital plane
View from above orbital plane
View from above satellite
View from above satellite

Ground track
Ground track

The orbit data is extracted from the following two-line orbital elements,

1    22U 59009A   18265.59431905 +.00000184 +00000-0 +37231-4 0  9998
2    22 050.2841 195.0516 0140966 357.8264 002.2054 14.94647656375554
Epoch (UTC): 22 September 2018 14:15:49
Eccentricity: 0.0140966
inclination: 50.2841°
perigee height: 485 km
apogee height: 681 km
right ascension of ascending node: 195.0516°
argument of perigee: 357.8264°
revolutions per day: 14.94647656
mean anomaly at epoch: 2.2054°
orbit number at epoch: 37555

The dashed part of the orbit path shows where the satellite is in the earth's shadow,  

DLR